Regional Weather Roundup
Issued by NWS

Home | Current Version | Previous Version | Graphics & Text | Print | Product List | Glossary On
Versions: 1 2 3 4 5 6 7 8 9 10 11 12 13 14 15 16 17 18 19 20 21 22 23 24 25 26 27
000
ASUS45 KPSR 250610
RWRAZ

ARIZONA HOURLY REGIONAL WEATHER ROUNDUP
NATIONAL WEATHER SERVICE PHOENIX AZ
1100 PM MST SUN JUL 24 2016

NOTE: FAIR INDICATES FEW OR NO CLOUDS BELOW 12,000 FEET WITH NO
SIGNIFICANT WEATHER AND/OR OBSTRUCTIONS TO VISIBILITY.

AZZ001>003-036-250700-
NORTHWEST ARIZONA

CITY           SKY/WX    TMP DP  RH WIND       PRES   REMARKS
BULLHEAD CITY  CLEAR    102  55  21 S12       29.76R HX 101
KINGMAN        PTCLDY    86  55  34 S8        30.01S
6HR MIN TEMP:  86; 6HR MAX TEMP:  98;

$$

AZZ004>008-015-016-018-250700-
NORTH CENTRAL ARIZONA

CITY           SKY/WX    TMP DP  RH WIND       PRES   REMARKS
GRAND CANYON   PTCLDY    59  51  75 NE5       30.30S
6HR MIN TEMP:  58; 6HR MAX TEMP:  91; 6HR PCP:  0.02;

PRESCOTT       CLEAR     78  55  44 S6        30.16F
6HR MIN TEMP:  77; 6HR MAX TEMP:  93;

FLAGSTAFF      PTCLDY    63  43  48 S5        30.31F
6HR MIN TEMP:  62; 6HR MAX TEMP:  81;

PAYSON         CLEAR     79  45  29 N7        30.21S
PAGE           PTCLDY    84  46  26 CALM      30.07R
6HR MIN TEMP:  84; 6HR MAX TEMP:  96;

$$

AZZ009>014-017-250700-
NORTHEAST ARIZONA

CITY           SKY/WX    TMP DP  RH WIND       PRES   REMARKS
WINSLOW        CLOUDY    77  51  40 SE6       30.20S
6HR MIN TEMP:  77; 6HR MAX TEMP:  91;

SAINT JOHNS    CLOUDY    70  56  61 E3        30.23F
6HR MIN TEMP:  68; 6HR MAX TEMP:  89; 6HR PCP:  0.04;

WINDOW ROCK    MOCLDY    69  51  52 CALM      30.33S
6HR MIN TEMP:  66; 6HR MAX TEMP:  86;

SHOW LOW       CLOUDY    68  46  45 CALM      30.30S
$$

AZZ023-250700-
GREATER PHOENIX AREA

CITY           SKY/WX    TMP DP  RH WIND       PRES   REMARKS
PHOENIX        PTCLDY    98  61  29 W13       29.80R
6HR MIN TEMP:  98; 6HR MAX TEMP: 107;

BUCKEYE        CLEAR     93  63  36 SW12G20   29.84R
LUKE AFB       CLEAR     97  64  33 SW21      29.80R
6HR MIN TEMP:  97; 6HR MAX TEMP: 107;

DEER VALLEY    CLEAR     97  56  25 SW12      29.83R
6HR MIN TEMP:  97; 6HR MAX TEMP: 107;

SCOTTSDALE     CLEAR     98  58  26 W12       29.85R
6HR MIN TEMP:  98; 6HR MAX TEMP: 106;

MESA-GATEWAY   PTCLDY    93  57  29 SW6       29.85R
$$

AZZ027-028-250700-
SOUTHWEST MARICOPA COUNTY AND PINAL COUNTY

CITY           SKY/WX    TMP DP  RH WIND       PRES   REMARKS
CASA GRANDE    CLEAR     95  61  31 W8        29.88R
6HR MIN TEMP:  95; 6HR MAX TEMP: 106;

GILA BEND      FAIR      92  62  36 SW10      29.83R
6HR MIN TEMP:  92; 6HR MAX TEMP: 108;

$$

AZZ503-504-507>509-250700-
SOUTHEAST ARIZONA

CITY           SKY/WX    TMP DP  RH WIND       PRES   REMARKS
TUCSON         PTCLDY    92  58  31 E24       30.03R
6HR MIN TEMP:  92; 6HR MAX TEMP: 102;

DAVIS-MONTHAN  MOCLDY    86  57  37 SE25G40   30.03R
NOGALES        CLOUDY    80  61  52 SE16G22   30.15R
6HR MIN TEMP:  78; 6HR MAX TEMP:  94; 6HR PCP: TRACE;

SIERRA VISTA   CLOUDY    70  60  70 SE29      30.25S
6HR MIN TEMP:  70; 6HR MAX TEMP:  93;

DOUGLAS          N/A    N/A N/A N/A MISG      30.28F THUNDER
SAFFORD        CLOUDY    86  54  33 SE22G31   30.03R
6HR MIN TEMP:  86; 6HR MAX TEMP: 103;

$$

AZZ020-021-025-026-031-250700-
SOUTHWEST ARIZONA

CITY           SKY/WX    TMP DP  RH WIND       PRES   REMARKS
YUMA           PTCLDY    89  69  51 S9        29.80R
6HR MIN TEMP:  89; 6HR MAX TEMP: 102;

$$

CAZ031-033-041-043-047-048-061-250700-
SOUTHERN CALIFORNIA

CITY           SKY/WX    TMP DP  RH WIND       PRES   REMARKS
DOWNTOWN L.A.  CLEAR     72  66  81 CALM      29.91R
6HR MIN TEMP:  72; 6HR MAX TEMP:  89;

L.A. AIRPORT   PTCLDY    71  66  84 SW7       29.92S
6HR MIN TEMP:  70; 6HR MAX TEMP:  80;

SAN DIEGO      PTCLDY    70  66  87 S5        29.93S
6HR MIN TEMP:  70; 6HR MAX TEMP:  76;

BURBANK        CLEAR     78  66  66 E8        29.92R
6HR MIN TEMP:  76; 6HR MAX TEMP:  94;

ONTARIO        PTCLDY    79  54  41 W9        29.92S
6HR MIN TEMP:  79; 6HR MAX TEMP:  95;

RIVERSIDE      CLEAR     79  57  46 W5        29.93R
6HR MIN TEMP:  79; 6HR MAX TEMP:  96;

PALM SPRINGS   MOCLDY    94  68  42 SE9       29.83R
6HR MIN TEMP:  94; 6HR MAX TEMP: 108;

EL CENTRO NAS  MOCLDY    89  74  60 SE15      29.77R
6HR MIN TEMP:  89; 6HR MAX TEMP: 108; 6HR PCP: TRACE;

IMPERIAL       MOCLDY    91  76  61 SE14      29.75S HX 103
6HR MIN TEMP:  91; 6HR MAX TEMP: 109;

BLYTHE         CLEAR     91  66  43 S14       29.79R
6HR MIN TEMP:  91; 6HR MAX TEMP: 110;

NEEDLES        PTCLDY   103  54  19 SW10      29.78R HX 101
6HR MIN TEMP: 103; 6HR MAX TEMP: 112;

$$

NVZ020-UTZ003-250700-
SOUTHERN NEVADA-UTAH

CITY           SKY/WX    TMP DP  RH WIND       PRES   REMARKS
LAS VEGAS      CLEAR    100  43  14 S13       29.80R
6HR MIN TEMP: 100; 6HR MAX TEMP: 110;

SALT LAKE CITY CLEAR     80  37  21 S5        30.03R
6HR MIN TEMP:  79; 6HR MAX TEMP:  96;

$$

NMZ009-TXZ055-250700-
NEW MEXICO-WEST TEXAS

CITY           SKY/WX    TMP DP  RH WIND       PRES   REMARKS
ALBUQUERQUE    MOCLDY    75  55  49 N6        30.24S
6HR MIN TEMP:  73; 6HR MAX TEMP:  86; 6HR PCP:  0.05;

EL PASO        MOCLDY    90  50  25 W8        30.03R
6HR MIN TEMP:  89; 6HR MAX TEMP: 105; 6HR PCP: TRACE;

$$


........................KEY........................
SKY/WX - SKY CONDITION/WEATHER
TMP    - TEMPERATURE IN FAHRENHEIT
DP     - DEW POINT IN FAHRENHEIT
RH     - RELATIVE HUMIDITY IN PERCENT
WIND   - DIRECTION AND SPEED IN MILES PER HOUR (MPH)
VRB    - VARIABLE WIND DIRECTION
PRES   - MEAN SEA LEVEL PRESSURE IN INCHES OF MERCURY
         F - FALLING PRESSURE   R - RISING PRESSURE
         S - STEADY PRESSURE
VSB    - VISIBILITY IN MILES
HX     - HEAT INDEX IN FAHRENHEIT
WCI    - WIND CHILL INDEX IN FAHRENHEIT
TC     - TEMPERATURE IN CELSIUS WHICH IS ALSO KNOWN AS
         TEMPERATURE IN CENTIGRADE
AFB    - AIR FORCE BASE
         LUKE AFB IS LUKE AIR FORCE BASE
         DAVIS-MONTHAN IS DAVIS-MONTHAN AIR FORCE BASE
NAS    - NAVAL AIR STATION
         EL CENTRO NAS IS EL CENTRO NAVAL AIR STATION
N/A    - NOT AVAILABLE





USA.gov is the U.S. government's official web portal to all federal, state and local government web resources and services.